Regional Weather Roundup
Issued by NWS Albany, NY

Home | Current Version | Previous Version | Graphics & Text | Print | Product List | Glossary On
Versions: 1 2 3 4 5 6 7 8 9 10 11 12 13 14 15 16 17 18 19 20 21 22 23 24 25 26 27 28 29 30 31 32 33 34 35 36 37 38 39 40 41 42 43 44 45 46 47 48 49 50
000
ASUS41 KALY 251910
RWRALY

NEW YORK STATE HOURLY WEATHER ROUNDUP
NATIONAL WEATHER SERVICE ALBANY NY
300 PM EDT MON MAY 25 2015

NOTE: "FAIR" INDICATES FEW OR NO CLOUDS BELOW 12,000 FEET WITH NO
SIGNIFICANT WEATHER AND/OR NO OBSTRUCTIONS TO VISIBILITY.

NYZ032-033-038>043-046>054-057>066-NYZ062>081-252000-
EAST


CITY           SKY/WX    TMP DP  RH WIND       PRES   REMARKS
ALBANY         PTSUNNY   82  57  42 SE14      30.10F
GLENS FALLS    MOSUNNY   75  54  47 S7        30.11
POUGHKEEPSIE   MOSUNNY   86  56  35 S9G21     30.12F
NEWBURGH       MOSUNNY   86  57  37 SW12G23   30.16F
WHITE PLAINS   SUNNY     80  59  48 S16G22    30.19F
ISLIP          PTSUNNY   73  58  59 S13       30.21F
NEW YORK CITY  MOSUNNY   81  57  43 S18G25    30.18F
CENTRAL PARK   SUNNY     83  57  41 VRB3      30.21F
$$

NYZ005>009-017-018-044>046-055-056-252000-
CENTRAL


CITY           SKY/WX    TMP DP  RH WIND       PRES   REMARKS
FULTON         MOSUNNY   82  55  39 S10       30.03F
SYRACUSE       PTSUNNY   87  56  34 SW10G17   30.04F
ROME           MOSUNNY   81  58  45 VRB5      30.07F
ELMIRA         MOSUNNY   86  55  34 SW16G23   30.08F
BINGHAMTON     SUNNY     81  54  39 S15G21    30.13F
MONTICELLO     PTSUNNY   81  55  41 S14G20    30.18F
$$

NYZ026>034-041>043-252000-
NORTH


CITY           SKY/WX    TMP DP  RH WIND       PRES   REMARKS
WATERTOWN      PTSUNNY   82  54  37 SW12      30.02F
FORT DRUM      NOT AVBL
MASSENA        LGT RAIN  65  61  87 N5        30.09F
SARANAC LAKE   CLOUDY    71  51  49 VRB3      30.09F
PLATTSBURGH    CLOUDY    61  52  72 SE6       30.11F
$$

NYZ001>004-010>016-019>021-252000-
WEST


CITY           SKY/WX    TMP DP  RH WIND       PRES   REMARKS
NIAGARA FALLS  PTSUNNY   81  59  47 SW21G33   30.02F
BUFFALO        PTSUNNY   79  59  50 SW14G24   30.04F
DUNKIRK        PTSUNNY   81  62  52 S17G25    30.04F
JAMESTOWN      PTSUNNY   77  57  50 SW13G21   30.12F
WELLSVILLE     PTSUNNY   79  54  41 S16       30.15F
ROCHESTER      CLOUDY    83  59  44 W14       30.04S
PENN YAN       MOSUNNY   86  54  33 SW10      30.07F
$$

             KEY
       WCI = WIND CHILL INDEX
       VSB = VISIBILITY
       HX  = HEAT INDEX
$$



USA.gov is the U.S. government's official web portal to all federal, state and local government web resources and services.